This is the latest recevied weather packets stored in our database for station/object F1ZTH-10. If no packets are shown the sender has not sent any weather packets the latest 10 day(s).
| Time | Temp. | Humidity | Pressure | Rain* | Wind** | Luminosity | Snow |
|---|---|---|---|---|---|---|---|
| 1777575460 | 17.78° C | 54% | 979 hPa | - | - | - | - |
| 1777574560 | 18.33° C | 53% | 979 hPa | - | - | - | - |
| 1777573659 | 18.89° C | 52% | 979 hPa | - | - | - | - |
| 1777572760 | 19.44° C | 51% | 979 hPa | - | - | - | - |
| 1777571860 | 19.44° C | 51% | 978 hPa | - | - | - | - |
| 1777570960 | 20° C | 50% | 978 hPa | - | - | - | - |
| 1777570059 | 20.56° C | 49% | 978 hPa | - | - | - | - |
| 1777569159 | 21.11° C | 48% | 978 hPa | - | - | - | - |
| 1777568259 | 21.67° C | 48% | 978 hPa | - | - | - | - |
| 1777567359 | 22.22° C | 48% | 978 hPa | - | - | - | - |
| 1777566459 | 22.22° C | 48% | 978 hPa | - | - | - | - |
| 1777564659 | 23.89° C | 46% | 978 hPa | - | - | - | - |
| 1777563759 | 25° C | 45% | 978 hPa | - | - | - | - |
| 1777562859 | 26.67° C | 43% | 978 hPa | - | - | - | - |
| 1777561959 | 27.22° C | 40% | 978 hPa | - | - | - | - |
| 1777561059 | 27.78° C | 42% | 978 hPa | - | - | - | - |
| 1777560159 | 27.22° C | 39% | 978 hPa | - | - | - | - |
| 1777559259 | 27.78° C | 42% | 978 hPa | - | - | - | - |
| 1777558359 | 28.89° C | 39% | 978 hPa | - | - | - | - |
| 1777557459 | 30° C | 42% | 978 hPa | - | - | - | - |
| 1777556559 | 28.89° C | 44% | 978 hPa | - | - | - | - |
| 1777555659 | 27.78° C | 44% | 978 hPa | - | - | - | - |
| 1777554759 | 29.44° C | 43% | 978 hPa | - | - | - | - |
| 1777553859 | 28.89° C | 41% | 978 hPa | - | - | - | - |
| 1777552959 | 27.78° C | 45% | 978 hPa | - | - | - | - |
* Rain since midnight (hover to see other rain measurements)
** Current wind speed in m/s (hover to see current wind gust speed)